DELTA 1 DEB, 21463

Orbit data source: Space-Track

DELTA 1 DEB, 21463 is space debris in SSO originally from a launch on Thu, 12 Jun 1975 UTC launched from the Air Force Western Test Range (AFWTR). Debris objects in space refer to the collection of defunct objects orbiting the Earth. Examples of debris include non-operational satellites, rocket bodies, and fragments generated from explosions, collisions, or faulty payload assembly.

Loading next visibility...
Identifier
21463, 1975-052EX
Orbit
SSO
Country
Flag of USUS
Related business
Manufacturer
Unknown
Mission
Spacecraft
Bus & Motor
Unknown
Mass
Unknown
Launch date (UTC)
1975-06-12 (51 years ago)
Launch vehicle
Unknown
Launch site
Air Force Western Test Range (AFWTR)
Object type
Payload
Rocket body
Debris
Shape & HBR
Unknown shape, 0.1 m
Radar Cross Section
Medium (>0.1 m² and <1 m²)

Expand to show TLE details & history
Last TLE update: 3 days ago

TLE from 3 days ago
0 DELTA 1 DEB
1 21463U 75052EX  26170.16558207  .00000166  00000-0  27585-3 0  9998
2 21463  99.8310  45.5718 0153686 222.4780 291.2723 13.57189677735670
Epoch: 2026-06-19T03:58Z
TLE epoch observation values (Epoch: 2026-06-19T03:58:26.290Z)
Latitude
27.49819°
Longitude
-96.28796°
Altitude
1,009.316 km
Speed
7.369 km/s
True Right ascension
15h 22m 52s
True Declination
27° 21' 45"
Sunlit
Object was in daylight at epoch
Visualization orbit readout
Latitude
Unknown
Longitude
Unknown
Altitude
Unknown
Speed
Unknown
Apparent Right ascension
Unknown
Apparent Declination
Unknown
Sunlit
N/A
Visualization observer readout
Local Sidereal Time
00:50:23
Azimuth
Unknown
Elevation
Unknown
Doppler factor
Unknown
Orbital elements
Apogee altitude
1,157.277 km
Perigee altitude
929.165 km
Semi-major axis
7,421.358 km
Eccentricity
0.01537
Inclination
99.831°
RAAN
45.5718°
Arg. of periapsis
222.478°
True anomaly
289.61989°
Mean anomaly
291.2723°
Eccentric anomaly
290.44722°
Mean motion
3.39483 °/min
Orbital period
106.04 mins
BSTAR
0.00027585
Loading maneuver chart data...
Computing Atmospheric mass density...

Documentation

Showing up to 5 results
|